Home > Weather > Fairbanks > Past weeks

Flag for USA Past Weather in Fairbanks, Alaska, USA — Yesterday and Last 2 Weeks

Now
54 °F

Overcast.


Feels Like: 54 °F
Forecast: 53 / 71 °F
Wind: 2 mph from East

Location: Wainwright U. S. Army Airfield

Current Time: Jun 28, 2016 at 3:27:58 AM

Latest Report: Jun 28, 2016 at 2:58 AM


Visibility: 9 mi

Pressure: 30.14 "Hg

Humidity: 96%

Dew Point: 53 °F

Location of FairbanksLocation

Past Weather in Fairbanks — Graph

°F

Fairbanks Temperature Yesterday

Maximum temperature yesterday: 63 °F (at 5:58 PM)
Minimum temperature yesterday: 55 °F (at 7:58 AM)
Average temperature yesterday: 58 °F

High & Low Weather Summary for the Past Weeks

 TemperatureHumidityPressure
High84 °F (Jun 17, 4:58 PM)100% (Jun 13, 4:03 AM)30.38 "Hg (Jun 13, 4:03 AM)
Low42 °F (Jun 15, 4:58 AM)16% (Jun 17, 6:58 PM)29.39 "Hg (Jun 13, 1:58 PM)
Average62 °F58%29.94 "Hg
* Reported Jun 13 1:58 AM — Jun 28 1:58 AM, Fairbanks, Weather by CustomWeather, © 2016

Note: Actual official high and low records may vary slightly from our data, if they occured in-between our weather recording intervals... More about our weather records

Advertising

Fairbanks Weather History for the Previous 24 Hours

Scroll right to see more
 ConditionsComfort  
Time TempWeatherWind HumidityBarometerVisibility
1:58 AM
Tue, Jun 28
54 °FMostly cloudy.2 mph95%30.14 "Hg9 mi
12:58 AM55 °FMostly cloudy.3 mph94%30.13 "Hg10 mi
11:58 PM
Mon, Jun 27
56 °FLight rain. Mostly cloudy.5 mph93%30.12 "Hg7 mi
11:03 PM59 °FLight rain. Overcast.5 mph82%30.10 "Hg9 mi
10:45 PM59 °FOvercast.3 mph82%30.10 "Hg9 mi
9:58 PM60 °FLight rain. More clouds than sun.7 mph79%30.10 "Hg7 mi
8:58 PM61 °FMore clouds than sun.3 mph83%30.08 "Hg10 mi
7:58 PM61 °FOvercast.5 mph82%30.08 "Hg10 mi
6:58 PM63 °FPartly sunny.9 mph71%30.06 "Hg10 mi
5:58 PM63 °FPartly sunny.15 mph69%30.06 "Hg10 mi
4:58 PM63 °FPartly sunny.10 mph74%30.07 "Hg10 mi
3:58 PM61 °FPartly sunny.13 mph83%30.08 "Hg9 mi
3:02 PM59 °FMostly cloudy.10 mph88%30.08 "Hg9 mi
2:58 PM58 °FLight rain. Overcast.8 mph90%30.09 "Hg8 mi
2:03 PM57 °FMostly cloudy.12 mph94%30.08 "Hg9 mi
1:58 PM57 °FLight rain. Mostly cloudy.13 mph92%30.09 "Hg8 mi
1:03 PM57 °FLight rain. More clouds than sun.15 mph94%30.07 "Hg8 mi
12:58 PM57 °FLight rain. Cloudy.14 mph94%30.07 "Hg6 mi
11:58 AM58 °FLight rain. Fog.13 mph92%30.06 "Hg6 mi
10:58 AM58 °FLight rain. Fog.13 mph91%30.05 "Hg4 mi
9:58 AM56 °FLight rain. Fog.8 mph92%30.05 "Hg6 mi
8:58 AM55 °FLight rain. Fog.7 mph94%30.05 "Hg4 mi
7:58 AM55 °FLight rain. Fog.6 mph96%30.03 "Hg2 mi
7:03 AM55 °FLight rain. Fog.3 mph94%30.01 "Hg2 mi
6:58 AM56 °FLight rain. Fog.3 mph94%30.02 "Hg2 mi
6:03 AM55 °FLight rain. Fog.3 mph100%30.02 "Hg6 mi
5:58 AM55 °FLight rain. Fog.2 mph100%30.03 "Hg6 mi
4:58 AM55 °FFog.3 mph100%30.01 "Hg6 mi
3:58 AM59 °FLight rain. Overcast.3 mph81%30.01 "Hg7 mi
Weather by CustomWeather, © 2016

See weather overviewHow to use our weather pages